DW4847 Weather Reports


time (UTC)temp
C
wind
direction
speed
KPH
gust
KPH
rain 1hr
cm
rain 24hr
cm
rain mn
cm
humidity
%
barometer
mb
20260510190549 18 281 1.6 6.4 0.00 0.36 0.00 66 1011.3
20260510190035 18 296 1.6 9.7 0.00 0.36 0.00 64 1011.3
20260510185549 18 236 3.2 9.7 0.00 0.48 0.00 66 1011.4
20260510185034 18 307 1.6 9.7 0.00 0.48 0.00 67 1011.4
20260510184528 18 30 6.4 9.7 0.00 0.48 0.00 66 1011.3
20260510184059 18 275 1.6 9.7 0.00 0.48 0.00 67 1011.3
20260510183545 18 317 4.8 9.7 0.00 0.48 0.00 65 1011.4
20260510183038 18 190 3.2 11.3 0.00 0.48 0.00 64 1011.4
20260510182532 18 339 4.8 11.3 0.00 0.48 0.00 63 1011.4
20260510182037 18 200 3.2 6.4 0.00 0.48 0.00 65 1011.4
20260510181532 18 192 3.2 6.4 0.00 0.48 0.00 63 1011.4
20260510181047 18 221 3.2 9.7 0.00 0.48 0.00 64 1011.1
20260510180532 18 180 3.2 9.7 0.00 0.48 0.00 62 1010.9
20260510180025 18 236 1.6 11.3 0.00 0.48 0.00 62 1011.1
20260510175534 18 321 3.2 11.3 0.00 0.56 0.00 63 1011.2
20260510175040 18 355 3.2 11.3 0.00 0.56 0.00 62 1011.1
20260510174536 18 226 4.8 11.3 0.00 0.56 0.00 63 1011.0
20260510174049 18 351 1.6 14.5 0.00 0.56 0.00 64 1010.9
20260510173532 18 276 6.4 14.5 0.00 0.56 0.00 63 1011.1
20260510173047 18 285 3.2 9.7 0.00 0.56 0.00 65 1011.1
20260510172541 18 213 3.2 9.7 0.00 0.56 0.00 67 1011.2
20260510172026 17 238 3.2 8.0 0.00 0.56 0.00 66 1011.1
20260510171535 17 330 3.2 11.3 0.00 0.56 0.00 66 1011.0
20260510171030 17 232 3.2 11.3 0.00 0.56 0.00 66 1011.1
20260510170536 18 319 1.6 9.7 0.00 0.56 0.00 64 1011.2
20260510170030 18 286 3.2 9.7 0.00 0.56 0.00 64 1011.3
20260510165545 18 186 1.6 6.4 0.00 0.61 0.00 64 1011.1
20260510165105 17 333 1.6 4.8 0.00 0.61 0.00 67 1011.1
20260510164528 17 286 1.6 6.4 0.00 0.61 0.00 69 1011.2
20260510164023 17 123 3.2 6.4 0.00 0.61 0.00 68 1011.3
20260510163528 17 199 3.2 4.8 0.00 0.61 0.00 71 1011.4
20260510163041 16 220 0.0 6.4 0.00 0.61 0.00 72 1011.6
20260510162538 16 193 1.6 6.4 0.00 0.61 0.00 71 1011.5
20260510162023 17 279 1.6 4.8 0.00 0.61 0.00 70 1011.6
20260510161538 17 355 1.6 6.4 0.00 0.61 0.00 70 1011.4
20260510161023 17 288 1.6 8.0 0.00 0.61 0.00 70 1011.5
20260510160538 17 158 1.6 8.0 0.00 0.61 0.00 71 1011.3
20260510160051 17 315 3.2 8.0 0.00 0.61 0.00 71 1011.4
20260510155544 17 319 1.6 11.3 0.00 0.66 0.00 72 1011.5
20260510155028 16 182 3.2 11.3 0.00 0.66 0.00 71 1011.6
20260510154523 16 190 3.2 11.3 0.00 0.66 0.00 70 1011.6
20260510154029 16 170 3.2 9.7 0.00 0.66 0.00 70 1011.7
20260510153607 16 192 4.8 11.3 0.00 0.66 0.00 69 1011.7
20260510153032 16 128 6.4 11.3 0.00 0.66 0.00 70 1011.6
20260510152545 16 174 1.6 6.4 0.00 0.66 0.00 72 1011.7
20260510152028 16 229 1.6 6.4 0.00 0.66 0.00 72 1011.7
20260510151524 16 229 3.2 11.3 0.00 0.66 0.00 72 1011.6
20260510151032 16 304 3.2 11.3 0.00 0.66 0.00 73 1011.7
20260510150525 16 225 0.0 8.0 0.00 0.66 0.00 74 1011.6
20260510150040 16 165 3.2 8.0 0.00 0.66 0.00 74 1011.6
20260510145524 16 173 1.6 6.4 0.00 0.71 0.00 75 1011.6
20260510145039 16 163 3.2 9.7 0.00 0.71 0.00 75 1011.4
20260510144523 16 144 4.8 9.7 0.00 0.71 0.00 74 1011.4
20260510144039 15 217 3.2 6.4 0.00 0.71 0.00 76 1011.4
20260510143524 15 242 1.6 8.0 0.00 0.71 0.00 78 1011.4
20260510143038 15 170 4.8 8.0 0.00 0.71 0.00 77 1011.5
20260510142530 15 163 3.2 6.4 0.00 0.71 0.00 78 1011.4
20260510142035 15 154 3.2 6.4 0.00 0.71 0.00 78 1011.4
20260510141527 15 174 4.8 8.0 0.00 0.71 0.00 79 1011.4
20260510141041 15 223 3.2 8.0 0.00 0.71 0.00 79 1011.5
20260510140524 15 205 0.0 6.4 0.00 0.71 0.00 82 1011.4
20260510140039 15 318 1.6 12.9 0.00 0.71 0.00 82 1011.5
20260510135526 14 313 1.6 12.9 0.00 0.76 0.00 82 1011.5
20260510135059 14 154 3.2 6.4 0.00 0.76 0.00 83 1011.5
20260510134532 13 226 1.6 8.0 0.00 0.76 0.00 85 1011.6
20260510134045 13 190 1.6 8.0 0.00 0.76 0.00 87 1011.6
20260510133547 13 222 3.2 8.0 0.00 0.76 0.00 86 1011.6
20260510133041 12 180 1.6 4.8 0.00 0.76 0.00 88 1011.6
20260510132556 12 138 1.6 6.4 0.00 0.76 0.00 88 1011.7
20260510132050 12 193 3.2 6.4 0.00 0.76 0.00 89 1011.8
20260510131536 12 142 1.6 4.8 0.00 0.76 0.00 92 1011.8
20260510131031 11 355 0.0 1.6 0.00 0.76 0.00 93 1011.8
20260510130544 11 338 0.0 1.6 0.00 0.76 0.00 93 1011.7
20260510130028 11 338 0.0 0.0 0.00 0.76 0.00 93 1011.6
20260510125524 10 338 0.0 1.6 0.00 0.81 0.00 94 1011.6
20260510125027 10 337 0.0 1.6 0.00 0.81 0.00 94 1011.6
20260510124523 10 339 0.0 1.6 0.00 0.81 0.00 94 1011.5
20260510124037 10 341 0.0 0.0 0.00 0.81 0.00 94 1011.4
20260510123541 10 341 0.0 0.0 0.00 0.81 0.00 94 1011.4
20260510123055 10 340 0.0 0.0 0.00 0.81 0.00 94 1011.4
20260510122549 10 344 0.0 1.6 0.00 0.81 0.00 94 1011.3
20260510122035 10 344 0.0 0.0 0.00 0.81 0.00 94 1011.5
20260510121530 10 344 0.0 0.0 0.00 0.81 0.00 94 1011.5
20260510121101 10 344 0.0 0.0 0.00 0.81 0.00 94 1011.4
20260510120527 10 344 0.0 0.0 0.00 0.81 0.00 94 1011.4
20260510120041 10 344 0.0 0.0 0.00 0.81 0.00 94 1011.4
20260510115528 10 344 0.0 0.0 0.00 0.81 0.00 94 1011.4
20260510114537 10 344 0.0 0.0 0.00 0.81 0.00 94 1011.4
20260510114022 9 344 0.0 0.0 0.00 0.81 0.00 94 1011.4
20260510113537 9 344 0.0 0.0 0.00 0.81 0.00 94 1011.5
20260510113023 9 343 0.0 0.0 0.00 0.81 0.00 94 1011.4
20260510112537 9 355 0.0 0.0 0.00 0.81 0.00 94 1011.4
20260510112024 9 349 0.0 0.0 0.00 0.81 0.00 94 1011.4
20260510111538 9 349 0.0 1.6 0.00 0.81 0.00 94 1011.4
20260510111032 9 349 0.0 1.6 0.00 0.81 0.00 94 1011.4
20260510110539 9 349 0.0 0.0 0.00 0.81 0.00 94 1011.3
20260510110050 9 349 0.0 1.6 0.00 0.81 0.00 94 1011.1
20260510105535 9 349 0.0 1.6 0.00 0.99 0.00 94 1011.1
20260510105023 9 146 0.0 0.0 0.00 0.99 0.00 94 1011.2
20260510104556 9 146 0.0 0.0 0.00 0.99 0.00 94 1011.2
20260510104029 9 147 0.0 3.2 0.00 0.99 0.00 94 1011.1
20260510103536 8 148 1.6 3.2 0.00 0.99 0.00 94 1011.0
20260510103050 8 196 0.0 0.0 0.00 0.99 0.00 94 1011.1
20260510102523 8 196 0.0 0.0 0.00 0.99 0.00 94 1010.9
20260510102028 8 196 0.0 1.6 0.00 0.99 0.00 94 1010.8
20260510101524 8 196 0.0 1.6 0.00 0.99 0.00 94 1010.7
20260510101033 8 196 0.0 1.6 0.00 0.99 0.00 94 1010.5
20260510100538 8 195 0.0 0.0 0.00 0.99 0.00 94 1010.5
20260510100033 8 195 0.0 0.0 0.00 0.99 0.00 94 1010.6
20260510095547 8 195 0.0 0.0 0.00 1.19 0.00 94 1010.5
20260510095033 8 196 0.0 0.0 0.00 1.19 0.00 94 1010.4
20260510094529 8 196 0.0 0.0 0.00 1.19 0.00 94 1010.4
20260510094043 8 196 0.0 0.0 0.00 1.19 0.00 94 1010.3
20260510093528 8 196 0.0 0.0 0.00 1.19 0.00 94 1010.2
20260510093041 8 196 0.0 0.0 0.00 1.19 0.00 94 1009.9
20260510092527 8 196 0.0 1.6 0.00 1.19 0.00 94 1009.9
20260510092022 8 196 0.0 1.6 0.00 1.19 0.00 94 1009.8
20260510091556 8 196 0.0 0.0 0.00 1.19 0.00 94 1009.6
20260510091039 8 195 0.0 1.6 0.00 1.19 0.00 94 1009.7
20260510090534 8 196 0.0 3.2 0.00 1.19 0.00 94 1009.7
20260510090047 8 196 0.0 3.2 0.00 1.19 0.00 94 1009.8
20260510085532 8 196 1.6 3.2 0.00 1.35 0.00 94 1009.8
20260510085026 8 196 0.0 1.6 0.00 1.35 0.00 94 1009.9
20260510084531 8 196 0.0 1.6 0.00 1.35 0.00 94 1009.8
20260510084026 8 196 0.0 3.2 0.00 1.35 0.00 94 1009.9
20260510083559 8 196 0.0 3.2 0.00 1.35 0.00 94 1010.1
20260510083025 8 184 1.6 3.2 0.00 1.35 0.00 94 1010.1
20260510082534 8 194 1.6 3.2 0.00 1.35 0.00 94 1010.2
20260510082049 8 201 1.6 4.8 0.00 1.35 0.00 94 1010.5
20260510081603 8 201 1.6 4.8 0.00 1.35 0.00 94 1010.5
20260510081028 8 175 0.0 3.2 0.00 1.35 0.00 94 1010.5
20260510080543 8 175 0.0 3.2 0.00 1.35 0.00 94 1010.4
20260510080028 8 175 1.6 4.8 0.00 1.35 0.00 94 1010.4
20260510075536 8 174 0.0 4.8 0.00 1.35 0.00 95 1010.6
20260510075049 8 192 1.6 4.8 0.00 1.35 0.00 94 1010.7
20260510074536 8 185 0.0 3.2 0.00 1.35 0.00 94 1010.6
20260510074052 8 159 0.0 1.6 0.00 1.35 0.00 94 1010.6
20260510073546 8 159 0.0 3.2 0.00 1.35 0.00 95 1010.6
20260510073032 8 78 0.0 4.8 0.00 1.35 0.00 95 1010.7
20260510072525 8 169 0.0 0.0 0.00 1.35 0.00 94 1010.7
20260510072032 8 169 0.0 1.6 0.00 1.35 0.00 94 1010.6
20260510071527 8 169 0.0 1.6 0.00 1.35 0.00 94 1010.4
20260510071041 8 169 0.0 3.2 0.00 1.35 0.00 94 1010.3
20260510070528 8 169 0.0 3.2 0.00 1.35 0.00 94 1010.3
20260510070042 7 169 0.0 0.0 0.00 1.35 0.00 94 1010.1
20260510065528 7 169 0.0 0.0 0.00 1.35 0.00 94 1010.0
20260510065023 7 169 0.0 0.0 0.00 1.35 0.00 94 1010.1
20260510064556 7 169 0.0 3.2 0.00 1.35 0.00 94 1010.1
20260510064023 7 169 0.0 3.2 0.00 1.35 0.00 94 1010.2
20260510063533 7 169 0.0 1.6 0.00 1.35 0.00 94 1010.1
20260510063047 7 169 0.0 1.6 0.00 1.35 0.00 93 1010.1
20260510062533 7 169 0.0 0.0 0.00 1.35 0.00 93 1010.0
20260510062027 7 169 0.0 0.0 0.00 1.35 0.00 93 1010.0
20260510061534 7 169 0.0 0.0 0.00 1.35 0.00 93 1010.0
20260510061028 7 169 0.0 0.0 0.00 1.35 0.00 93 1010.0
20260510060543 7 169 0.0 0.0 0.00 1.35 0.00 93 1010.1
20260510060028 7 169 0.0 0.0 0.00 1.35 0.00 93 1010.2
20260510055543 7 169 0.0 0.0 0.00 1.35 0.00 93 1010.2
20260510055057 7 169 0.0 0.0 0.00 1.35 0.00 93 1010.2
20260510054541 7 169 0.0 0.0 0.00 1.35 0.00 93 1010.4
20260510054036 7 169 0.0 0.0 0.00 1.35 0.00 93 1010.3
20260510053522 7 169 0.0 0.0 0.00 1.35 0.00 94 1010.2
20260510053037 7 169 0.0 0.0 0.00 1.35 0.00 94 1010.1
20260510052524 7 169 0.0 0.0 0.00 1.35 0.00 94 1010.1
20260510052038 7 169 0.0 0.0 0.00 1.35 0.00 94 1010.3
20260510051552 7 169 0.0 0.0 0.00 1.35 0.00 93 1010.3
20260510051046 7 169 0.0 0.0 0.00 1.35 0.00 93 1010.3
20260510050533 7 169 0.0 1.6 0.00 1.35 0.00 93 1010.4
20260510050027 7 169 0.0 1.6 0.00 1.35 0.00 93 1010.4
20260510045529 7 169 0.0 0.0 0.00 1.35 0.00 93 1010.4
20260510045024 7 169 0.0 1.6 0.00 1.35 0.00 93 1010.4
20260510044538 7 169 0.0 0.0 0.00 1.35 0.00 93 1010.2
20260510044023 8 169 0.0 0.0 0.00 1.35 0.00 93 1010.2
20260510043534 8 169 0.0 0.0 0.00 1.35 0.00 93 1010.2
20260510043038 8 169 0.0 0.0 0.00 1.35 0.00 93 1010.4
20260510042531 8 169 0.0 0.0 0.00 1.35 0.00 93 1010.4
20260510042047 8 169 0.0 1.6 0.00 1.35 0.00 93 1010.3
20260510041533 8 169 0.0 1.6 0.00 1.35 0.00 93 1010.3
20260510041027 8 167 0.0 1.6 0.00 1.35 0.00 93 1010.4
20260510040600 8 167 0.0 0.0 0.00 1.35 0.00 93 1010.3
20260510040025 8 167 0.0 0.0 0.00 1.35 0.00 93 1010.2
20260510035600 8 167 0.0 0.0 0.00 1.35 1.35 93 1010.2
20260510035053 8 167 0.0 1.6 0.00 1.35 1.35 94 1010.2
20260510034547 8 167 0.0 1.6 0.00 1.35 1.35 94 1010.2
20260510034034 8 167 0.0 1.6 0.00 1.35 1.35 94 1010.0
20260510033529 8 167 0.0 1.6 0.00 1.35 1.35 94 1010.0
20260510033036 8 167 0.0 0.0 0.00 1.35 1.35 94 1010.1
20260510032531 8 167 0.0 1.6 0.00 1.35 1.35 94 1010.2
20260510032046 8 167 0.0 3.2 0.00 1.35 1.35 94 1010.3
20260510031551 8 171 0.0 0.0 0.00 1.35 1.35 93 1010.3
20260510031025 8 171 0.0 3.2 0.00 1.35 1.35 93 1010.3
20260510030540 8 171 1.6 3.2 0.00 1.35 1.35 93 1010.4
20260510030026 8 165 0.0 0.0 0.00 1.35 1.35 93 1010.2
20260510025537 8 165 0.0 0.0 0.00 1.35 1.35 93 1010.3
20260510025022 8 165 0.0 1.6 0.00 1.35 1.35 93 1010.4
20260510024537 8 165 0.0 1.6 0.00 1.35 1.35 93 1010.3
20260510024024 8 165 0.0 0.0 0.00 1.35 1.35 93 1010.2
20260510023538 8 165 0.0 1.6 0.00 1.35 1.35 93 1010.3
20260510023033 8 165 0.0 1.6 0.00 1.35 1.35 93 1010.4
20260510022539 8 165 0.0 0.0 0.00 1.35 1.35 93 1010.3
20260510022034 8 165 0.0 1.6 0.00 1.35 1.35 93 1010.4
20260510021549 8 165 0.0 1.6 0.00 1.35 1.35 93 1010.4
20260510021035 8 165 0.0 0.0 0.00 1.35 1.35 93 1010.2
20260510020530 8 165 0.0 0.0 0.00 1.35 1.35 93 1010.3
20260510020045 8 165 0.0 1.6 0.00 1.35 1.35 93 1010.2
20260510015531 8 165 0.0 1.6 0.00 1.35 1.35 92 1010.1
20260510015046 8 165 0.0 0.0 0.00 1.35 1.35 92 1010.0
20260510014531 8 165 0.0 0.0 0.00 1.35 1.35 92 1010.3
20260510014025 8 165 0.0 0.0 0.00 1.35 1.35 92 1010.2
20260510013531 8 165 0.0 3.2 0.00 1.35 1.35 92 1010.4
20260510013026 8 165 0.0 3.2 0.00 1.35 1.35 92 1010.5
20260510012541 8 163 0.0 1.6 0.00 1.35 1.35 92 1010.6
20260510012047 8 163 0.0 1.6 0.00 1.35 1.35 92 1010.4
20260510011540 8 163 0.0 1.6 0.00 1.35 1.35 92 1010.5
20260510011034 8 163 0.0 1.6 0.00 1.35 1.35 92 1010.5
20260510010541 8 163 0.0 0.0 0.00 1.35 1.35 92 1010.3
20260510010035 8 163 0.0 1.6 0.00 1.35 1.35 92 1010.3
20260510005538 8 163 0.0 1.6 0.00 1.35 1.35 92 1010.2
20260510005052 8 163 0.0 0.0 0.00 1.35 1.35 91 1010.1
20260510004525 8 163 0.0 1.6 0.00 1.35 1.35 91 1009.9
20260510004031 9 163 0.0 1.6 0.00 1.35 1.35 92 1009.9
20260510003525 9 163 0.0 1.6 0.00 1.35 1.35 92 1009.7
20260510003040 9 163 0.0 3.2 0.00 1.35 1.35 92 1009.6
20260510002526 9 164 1.6 4.8 0.00 1.35 1.35 92 1009.5
20260510002101 9 164 1.6 3.2 0.00 1.35 1.35 92 1009.5
20260510001534 9 163 0.0 0.0 0.00 1.35 1.35 91 1009.5
20260510001042 9 163 0.0 1.6 0.00 1.35 1.35 91 1009.5
20260510000537 9 163 0.0 1.6 0.00 1.35 1.35 91 1009.4
20260510000048 9 163 0.0 3.2 0.00 1.35 1.35 91 1009.5
20260509235533 9 163 1.6 3.2 0.00 1.35 1.35 91 1009.4
20260509235047 9 121 0.0 0.0 0.00 1.35 1.35 92 1009.4
20260509234533 9 121 0.0 0.0 0.00 1.35 1.35 92 1009.5
20260509234048 9 121 0.0 0.0 0.00 1.35 1.35 91 1009.4
20260509233543 9 121 0.0 0.0 0.00 1.35 1.35 91 1009.3
20260509233028 9 121 0.0 0.0 0.00 1.35 1.35 91 1009.4
20260509232523 9 121 0.0 1.6 0.00 1.35 1.35 91 1009.4
20260509232029 9 121 0.0 1.6 0.00 1.35 1.35 91 1009.4
20260509231541 9 121 0.0 3.2 0.00 1.35 1.35 91 1009.2
20260509231036 9 111 0.0 1.6 0.00 1.35 1.35 91 1009.3
20260509230538 9 113 0.0 1.6 0.00 1.35 1.35 91 1009.4
20260509230032 9 111 0.0 3.2 0.00 1.35 1.35 91 1009.5
20260509225547 9 111 1.6 3.2 0.00 1.35 1.35 91 1009.4
20260509225034 9 111 0.0 1.6 0.00 1.35 1.35 91 1009.6
20260509224549 9 111 0.0 3.2 0.00 1.35 1.35 91 1009.5
20260509224034 9 111 0.0 3.2 0.00 1.35 1.35 90 1009.5
20260509223529 9 125 0.0 4.8 0.00 1.35 1.35 90 1009.5
20260509223104 10 107 0.0 1.6 0.00 1.35 1.35 90 1009.5
20260509222529 10 124 0.0 1.6 0.00 1.35 1.35 90 1009.5
20260509222044 10 124 0.0 6.4 0.00 1.35 1.35 90 1009.4
20260509221538 10 175 1.6 6.4 0.00 1.35 1.35 90 1009.3
20260509221024 10 132 1.6 4.8 0.03 1.35 1.35 90 1009.4
20260509220538 10 284 0.0 4.8 0.03 1.35 1.35 90 1009.5
20260509220053 10 169 0.0 4.8 0.03 1.35 1.35 90 1009.5
20260509215536 10 169 1.6 4.8 0.03 1.35 1.35 90 1009.5
20260509215051 10 163 0.0 3.2 0.03 1.35 1.35 91 1009.5
20260509214545 10 209 0.0 8.0 0.03 1.35 1.35 90 1009.4
20260509214031 10 209 1.6 8.0 0.05 1.35 1.35 90 1009.4
20260509213545 10 281 0.0 3.2 0.05 1.35 1.35 90 1009.5
20260509213032 10 71 0.0 4.8 0.10 1.35 1.35 90 1009.5
20260509212527 10 155 0.0 4.8 0.10 1.35 1.35 90 1009.6
20260509212034 10 169 1.6 4.8 0.13 1.35 1.35 90 1009.7
20260509211528 9 130 1.6 4.8 0.15 1.35 1.35 90 1009.7
20260509211039 10 193 1.6 4.8 0.13 1.32 1.32 90 1009.7
20260509210525 9 32 1.6 6.4 0.15 1.32 1.32 90 1009.6
20260509210040 9 246 0.0 6.4 0.15 1.32 1.32 90 1009.7
20260509205555 10 323 1.6 6.4 0.18 1.32 1.32 89 1009.7
20260509205039 10 139 0.0 8.0 0.18 1.32 1.32 89 1009.7
20260509204533 10 184 0.0 6.4 0.18 1.32 1.32 90 1009.8
20260509204048 10 335 1.6 6.4 0.18 1.30 1.30 90 1009.8
20260509203533 10 130 3.2 6.4 0.15 1.27 1.27 90 1010.0
20260509203045 10 302 1.6 4.8 0.15 1.24 1.24 91 1009.9
20260509202530 10 170 1.6 4.8 0.15 1.24 1.24 91 1010.0
20260509202032 10 169 0.0 8.0 0.15 1.22 1.22 90 1010.2
20260509201538 10 219 3.2 8.0 0.15 1.19 1.19 90 1010.3
20260509201053 10 188 1.6 14.5 0.18 1.19 1.19 91 1010.3
20260509200527 10 205 4.8 14.5 0.18 1.17 1.17 92 1010.3
20260509200034 10 217 1.6 8.0 0.18 1.17 1.17 92 1010.4
20260509195546 10 300 1.6 6.4 0.18 1.14 1.14 93 1010.4
20260509195038 10 186 1.6 3.2 0.18 1.14 1.14 93 1010.3
20260509194525 10 254 0.0 3.2 0.20 1.14 1.14 93 1010.4
20260509194039 10 248 0.0 4.8 0.18 1.12 1.12 93 1010.5
20260509193534 10 196 0.0 1.6 0.20 1.12 1.12 93 1010.4
20260509193039 10 196 0.0 1.6 0.18 1.09 1.09 93 1010.5
20260509192534 9 128 0.0 1.6 0.18 1.09 1.09 93 1010.5
20260509192035 9 128 0.0 1.6 0.18 1.07 1.07 93 1010.4
20260509191527 9 128 0.0 1.6 0.15 1.04 1.04 93 1010.5
20260509191101 9 127 0.0 1.6 0.13 1.02 1.02 93 1010.4